User: anonymous   Login
Location: Fort Wayne
(41.1310°N, 85.1290°W)
Time: 11:45:35
(UTC-05:00)
Language:

Cosmos 1980 - Orbit

View from above orbital plane
View from above orbital plane
View from above satellite
View from above satellite

Ground track
Ground track

The orbit data is extracted from the following two-line orbital elements,

1 19649U 88102A   17022.18325137 -.00000265  00000-0 -11302-3 0  9995
2 19649  71.0009  12.2762 0005828 202.9922 157.0940 14.14659818453923
Epoch (UTC): 22 January 2017 04:23:52
Eccentricity: 0.0005828
inclination: 71.0009°
perigee height: 839 km
apogee height: 847 km
right ascension of ascending node: 12.2762°
argument of perigee: 202.9922°
revolutions per day: 14.14659818
mean anomaly at epoch: 157.0940°
orbit number at epoch: 45392

The dashed part of the orbit path shows where the satellite is in the earth's shadow,  

DLR